Find Weina-1 01 weixing

NORAD ID: 43169 Int'l Des: 2018-011 Owner: WEINA Country: CN operational
LEOCIRCULAR

Current View

Loading 3D Globe...

About Weina-1 01 weixing

Description loading...

Upcoming Passes

Passes for default location (London). Set your location on the main map for personalized predictions.

Altitude History

Loading altitude history...

Two-Line Element Set

1 43169U 18011A 26149.43796948 .00002949 00000-0 22915-3 0 9992
2 43169 34.9961 275.8530 0003170 246.9215 113.1159 15.00909784455308
Epoch: May 29, 2026 • Age: 14 hours

Current Status

Altitude 566.8 km
Velocity 7.58 km/s
Sub-Earth Point -19.28°S, 15.97°W
Launch Date Jan 25, 2018
Age 8.3 years
Type other

Technical Details

Classification Payload
Mass 5.00 kg
Dry Mass 5.00 kg
Total Mass 5.00 kg
Length 0.20 m
Diameter 0.10 m
Span 0.20 m
Shape Box
Manufacturer SECM
Phase Status In Orbit
Owner/State WEINA/CN

Most Searched